Year,Month,Day,Hour,Minute,Value (Times are PST for temperature in C)
2012,08,31,00,00,14.70
2012,08,31,00,01,14.70
2012,08,31,00,02,14.70
2012,08,31,00,03,14.60
2012,08,31,00,04,14.60
2012,08,31,00,05,14.60
2012,08,31,00,06,14.60
2012,08,31,00,07,14.50
2012,08,31,00,08,14.50
2012,08,31,00,09,14.40
2012,08,31,00,10,14.40
2012,08,31,00,11,14.40
2012,08,31,00,12,14.30
2012,08,31,00,13,14.30
2012,08,31,00,14,14.30
2012,08,31,00,15,14.20
2012,08,31,00,16,14.20
2012,08,31,00,17,14.20
2012,08,31,00,18,14.10
2012,08,31,00,19,14.10
2012,08,31,00,20,14.00
2012,08,31,00,21,14.00
2012,08,31,00,22,14.00
2012,08,31,00,23,14.00
2012,08,31,00,24,13.90
2012,08,31,00,25,14.00
2012,08,31,00,26,14.00
2012,08,31,00,27,14.00
2012,08,31,00,28,14.00
2012,08,31,00,29,14.00
2012,08,31,00,30,14.00
2012,08,31,00,31,14.00
2012,08,31,00,32,14.00
2012,08,31,00,33,14.00
2012,08,31,00,34,14.00
2012,08,31,00,35,14.00
2012,08,31,00,36,14.10
2012,08,31,00,37,14.10
2012,08,31,00,38,14.10
2012,08,31,00,39,14.20
2012,08,31,00,40,14.20
2012,08,31,00,41,14.20
2012,08,31,00,42,14.20
2012,08,31,00,43,14.20
2012,08,31,00,44,14.20
2012,08,31,00,45,14.20
2012,08,31,00,46,14.20
2012,08,31,00,47,14.20
2012,08,31,00,48,14.20
2012,08,31,00,49,14.20
2012,08,31,00,50,14.20
2012,08,31,00,51,14.10
2012,08,31,00,52,14.10
2012,08,31,00,53,14.10
2012,08,31,00,54,14.10
2012,08,31,00,55,14.10
2012,08,31,00,56,14.10
2012,08,31,00,57,14.00
2012,08,31,00,58,14.00
2012,08,31,00,59,14.00
2012,08,31,01,00,14.00
2012,08,31,01,01,14.00
2012,08,31,01,02,14.00
2012,08,31,01,03,14.10
2012,08,31,01,04,14.10
2012,08,31,01,05,14.10
2012,08,31,01,06,14.10
2012,08,31,01,07,14.10
2012,08,31,01,08,14.20
2012,08,31,01,09,14.20
2012,08,31,01,10,14.20
2012,08,31,01,11,14.20
2012,08,31,01,12,14.10
2012,08,31,01,13,14.10
2012,08,31,01,14,14.10
2012,08,31,01,15,14.10
2012,08,31,01,16,14.00
2012,08,31,01,17,14.00
2012,08,31,01,18,14.00
2012,08,31,01,19,13.90
2012,08,31,01,20,13.90
2012,08,31,01,21,13.90
2012,08,31,01,22,13.90
2012,08,31,01,23,13.90
2012,08,31,01,24,13.90
2012,08,31,01,25,13.90
2012,08,31,01,26,13.90
2012,08,31,01,27,13.90
2012,08,31,01,28,13.90
2012,08,31,01,29,13.80
2012,08,31,01,30,13.80
2012,08,31,01,31,13.80
2012,08,31,01,32,13.80
2012,08,31,01,33,13.80
2012,08,31,01,34,13.70
2012,08,31,01,35,13.70
2012,08,31,01,36,13.70
2012,08,31,01,37,13.70
2012,08,31,01,38,13.80
2012,08,31,01,39,13.80
2012,08,31,01,40,13.80
2012,08,31,01,41,13.90
2012,08,31,01,42,13.90
2012,08,31,01,43,14.00
2012,08,31,01,44,14.00
2012,08,31,01,45,14.00
2012,08,31,01,46,14.10
2012,08,31,01,47,14.10
2012,08,31,01,48,14.10
2012,08,31,01,49,14.10
2012,08,31,01,50,14.10
2012,08,31,01,51,14.10
2012,08,31,01,52,14.10
2012,08,31,01,53,14.10
2012,08,31,01,54,14.00
2012,08,31,01,55,14.00
2012,08,31,01,56,13.90
2012,08,31,01,57,13.90
2012,08,31,01,58,13.90
2012,08,31,01,59,13.80
2012,08,31,02,00,13.80
2012,08,31,02,01,13.70
2012,08,31,02,02,13.70
2012,08,31,02,03,13.70
2012,08,31,02,04,13.60
2012,08,31,02,05,13.60
2012,08,31,02,06,13.50
2012,08,31,02,07,13.40
2012,08,31,02,08,13.40
2012,08,31,02,09,13.30
2012,08,31,02,10,13.30
2012,08,31,02,11,13.30
2012,08,31,02,12,13.20
2012,08,31,02,13,13.20
2012,08,31,02,14,13.10
2012,08,31,02,15,13.00
2012,08,31,02,16,12.90
2012,08,31,02,17,12.90
2012,08,31,02,18,12.80
2012,08,31,02,19,12.70
2012,08,31,02,20,12.60
2012,08,31,02,21,12.50
2012,08,31,02,22,12.50
2012,08,31,02,23,12.40
2012,08,31,02,24,12.40
2012,08,31,02,25,12.30
2012,08,31,02,26,12.30
2012,08,31,02,27,12.30
2012,08,31,02,28,12.20
2012,08,31,02,29,12.20
2012,08,31,02,30,12.20
2012,08,31,02,31,12.10
2012,08,31,02,32,12.10
2012,08,31,02,33,12.10
2012,08,31,02,34,12.10
2012,08,31,02,35,12.00
2012,08,31,02,36,12.00
2012,08,31,02,37,12.00
2012,08,31,02,38,11.90
2012,08,31,02,39,11.90
2012,08,31,02,40,11.90
2012,08,31,02,41,11.90
2012,08,31,02,42,11.90
2012,08,31,02,43,11.90
2012,08,31,02,44,11.90
2012,08,31,02,45,11.80
2012,08,31,02,46,11.80
2012,08,31,02,47,11.80
2012,08,31,02,48,11.80
2012,08,31,02,49,11.70
2012,08,31,02,50,11.70
2012,08,31,02,51,11.80
2012,08,31,02,52,11.80
2012,08,31,02,53,11.80
2012,08,31,02,54,11.80
2012,08,31,02,55,11.80
2012,08,31,02,56,11.90
2012,08,31,02,57,11.90
2012,08,31,02,58,11.90
2012,08,31,02,59,12.00
2012,08,31,03,00,12.00
2012,08,31,03,01,12.10
2012,08,31,03,02,12.20
2012,08,31,03,03,12.20
2012,08,31,03,04,12.20
2012,08,31,03,05,12.20
2012,08,31,03,06,12.30
2012,08,31,03,07,12.30
2012,08,31,03,08,12.30
2012,08,31,03,09,12.30
2012,08,31,03,10,12.40
2012,08,31,03,11,12.40
2012,08,31,03,12,12.40
2012,08,31,03,13,12.40
2012,08,31,03,14,12.30
2012,08,31,03,15,12.30
2012,08,31,03,16,12.30
2012,08,31,03,17,12.30
2012,08,31,03,18,12.30
2012,08,31,03,19,12.30
2012,08,31,03,20,12.30
2012,08,31,03,21,12.30
2012,08,31,03,22,12.30
2012,08,31,03,23,12.30
2012,08,31,03,24,12.30
2012,08,31,03,25,12.40
2012,08,31,03,26,12.40
2012,08,31,03,27,12.40
2012,08,31,03,28,12.40
2012,08,31,03,29,12.40
2012,08,31,03,30,12.50
2012,08,31,03,31,12.50
2012,08,31,03,32,12.50
2012,08,31,03,33,12.50
2012,08,31,03,34,12.50
2012,08,31,03,35,12.50
2012,08,31,03,36,12.40
2012,08,31,03,37,12.40
2012,08,31,03,38,12.40
2012,08,31,03,39,12.40
2012,08,31,03,40,12.40
2012,08,31,03,41,12.40
2012,08,31,03,42,12.40
2012,08,31,03,43,12.40
2012,08,31,03,44,12.40
2012,08,31,03,45,12.40
2012,08,31,03,46,12.40
2012,08,31,03,47,12.40
2012,08,31,03,48,12.40
2012,08,31,03,49,12.40
2012,08,31,03,50,12.40
2012,08,31,03,51,12.40
2012,08,31,03,52,12.30
2012,08,31,03,53,12.40
2012,08,31,03,54,12.30
2012,08,31,03,55,12.30
2012,08,31,03,56,12.30
2012,08,31,03,57,12.30
2012,08,31,03,58,12.30
2012,08,31,03,59,12.20
2012,08,31,04,00,12.10
2012,08,31,04,01,12.10
2012,08,31,04,02,12.10
2012,08,31,04,03,12.00
2012,08,31,04,04,12.00
2012,08,31,04,05,12.00
2012,08,31,04,06,12.00
2012,08,31,04,07,12.00
2012,08,31,04,08,12.00
2012,08,31,04,09,12.10
2012,08,31,04,10,12.10
2012,08,31,04,11,12.10
2012,08,31,04,12,12.10
2012,08,31,04,13,12.10
2012,08,31,04,14,12.10
2012,08,31,04,15,12.10
2012,08,31,04,16,12.10
2012,08,31,04,17,12.10
2012,08,31,04,18,12.20
2012,08,31,04,19,12.10
2012,08,31,04,20,12.20
2012,08,31,04,21,12.20
2012,08,31,04,22,12.20
2012,08,31,04,23,12.10
2012,08,31,04,24,12.10
2012,08,31,04,25,12.10
2012,08,31,04,26,12.10
2012,08,31,04,27,12.00
2012,08,31,04,28,12.00
2012,08,31,04,29,12.00
2012,08,31,04,30,11.90
2012,08,31,04,31,11.90
2012,08,31,04,32,11.90
2012,08,31,04,33,11.90
2012,08,31,04,34,11.90
2012,08,31,04,35,11.90
2012,08,31,04,36,11.90
2012,08,31,04,37,12.00
2012,08,31,04,38,12.00
2012,08,31,04,39,12.10
2012,08,31,04,40,12.10
2012,08,31,04,41,12.20
2012,08,31,04,42,12.20
2012,08,31,04,43,12.20
2012,08,31,04,44,12.30
2012,08,31,04,45,12.30
2012,08,31,04,46,12.30
2012,08,31,04,47,12.30
2012,08,31,04,48,12.40
2012,08,31,04,49,12.40
2012,08,31,04,50,12.40
2012,08,31,04,51,12.40
2012,08,31,04,52,12.40
2012,08,31,04,53,12.40
2012,08,31,04,54,12.40
2012,08,31,04,55,12.40
2012,08,31,04,56,12.40
2012,08,31,04,57,12.40
2012,08,31,04,58,12.40
2012,08,31,04,59,12.40
2012,08,31,05,00,12.50
2012,08,31,05,01,12.50
2012,08,31,05,02,12.60
2012,08,31,05,03,12.60
2012,08,31,05,04,12.60
2012,08,31,05,05,12.70
2012,08,31,05,06,12.70
2012,08,31,05,07,12.80
2012,08,31,05,08,12.80
2012,08,31,05,09,12.80
2012,08,31,05,10,12.90
2012,08,31,05,11,12.90
2012,08,31,05,12,12.90
2012,08,31,05,13,12.90
2012,08,31,05,14,12.90
2012,08,31,05,15,12.90
2012,08,31,05,16,12.90
2012,08,31,05,17,13.00
2012,08,31,05,18,13.00
2012,08,31,05,19,13.00
2012,08,31,05,20,13.00
2012,08,31,05,21,13.00
2012,08,31,05,22,12.90
2012,08,31,05,23,12.90
2012,08,31,05,24,12.90
2012,08,31,05,25,12.90
2012,08,31,05,26,12.90
2012,08,31,05,27,12.90
2012,08,31,05,28,12.90
2012,08,31,05,29,12.90
2012,08,31,05,30,12.80
2012,08,31,05,31,12.80
2012,08,31,05,32,12.80
2012,08,31,05,33,12.80
2012,08,31,05,34,12.80
2012,08,31,05,35,12.80
2012,08,31,05,36,12.80
2012,08,31,05,37,12.80
2012,08,31,05,38,12.80
2012,08,31,05,39,12.70
2012,08,31,05,40,12.70
2012,08,31,05,41,12.70
2012,08,31,05,42,12.70
2012,08,31,05,43,12.70
2012,08,31,05,44,12.70
2012,08,31,05,45,12.70
2012,08,31,05,46,12.70
2012,08,31,05,47,12.70
2012,08,31,05,48,12.70
2012,08,31,05,49,12.70
2012,08,31,05,50,12.70
2012,08,31,05,51,12.70
2012,08,31,05,52,12.70
2012,08,31,05,53,12.70
2012,08,31,05,54,12.70
2012,08,31,05,55,12.70
2012,08,31,05,56,12.70
2012,08,31,05,57,12.70
2012,08,31,05,58,12.70
2012,08,31,05,59,12.70
2012,08,31,06,00,12.70
2012,08,31,06,01,12.70
2012,08,31,06,02,12.70
2012,08,31,06,03,12.70
2012,08,31,06,04,12.70
2012,08,31,06,05,12.70
2012,08,31,06,06,12.70
2012,08,31,06,07,12.80
2012,08,31,06,08,12.80
2012,08,31,06,09,12.80
2012,08,31,06,10,12.80
2012,08,31,06,11,12.80
2012,08,31,06,12,12.70
2012,08,31,06,13,12.70
2012,08,31,06,14,12.70
2012,08,31,06,15,12.70
2012,08,31,06,16,12.70
2012,08,31,06,17,12.70
2012,08,31,06,18,12.70
2012,08,31,06,19,12.70
2012,08,31,06,20,12.70
2012,08,31,06,21,12.60
2012,08,31,06,22,12.60
2012,08,31,06,23,12.60
2012,08,31,06,24,12.60
2012,08,31,06,25,12.60
2012,08,31,06,26,12.60
2012,08,31,06,27,12.60
2012,08,31,06,28,12.60
2012,08,31,06,29,12.60
2012,08,31,06,30,12.60
2012,08,31,06,31,12.60
2012,08,31,06,32,12.60
2012,08,31,06,33,12.60
2012,08,31,06,34,12.60
2012,08,31,06,35,12.60
2012,08,31,06,36,12.60
2012,08,31,06,37,12.60
2012,08,31,06,38,12.60
2012,08,31,06,39,12.60
2012,08,31,06,40,12.60
2012,08,31,06,41,12.70
2012,08,31,06,42,12.70
2012,08,31,06,43,12.70
2012,08,31,06,44,12.70
2012,08,31,06,45,12.70
2012,08,31,06,46,12.70
2012,08,31,06,47,12.70
2012,08,31,06,48,12.70
2012,08,31,06,49,12.70
2012,08,31,06,50,12.70
2012,08,31,06,51,12.70
2012,08,31,06,52,12.70
2012,08,31,06,53,12.70
2012,08,31,06,54,12.70
2012,08,31,06,55,12.70
2012,08,31,06,56,12.70
2012,08,31,06,57,12.70
2012,08,31,06,58,12.70
2012,08,31,06,59,12.80
2012,08,31,07,00,12.80
2012,08,31,07,01,12.80
2012,08,31,07,02,12.80
2012,08,31,07,03,12.80
2012,08,31,07,04,12.80
2012,08,31,07,05,12.80
2012,08,31,07,06,12.80
2012,08,31,07,07,12.90
2012,08,31,07,08,12.90
2012,08,31,07,09,12.90
2012,08,31,07,10,12.90
2012,08,31,07,11,12.90
2012,08,31,07,12,12.90
2012,08,31,07,13,12.90
2012,08,31,07,14,12.90
2012,08,31,07,15,13.00
2012,08,31,07,16,12.90
2012,08,31,07,17,13.00
2012,08,31,07,18,13.00
2012,08,31,07,19,13.00
2012,08,31,07,20,13.00
2012,08,31,07,21,13.00
2012,08,31,07,22,13.00
2012,08,31,07,23,13.00
2012,08,31,07,24,13.00
2012,08,31,07,25,13.00
2012,08,31,07,26,13.00
2012,08,31,07,27,13.10
2012,08,31,07,28,13.10
2012,08,31,07,29,13.10
2012,08,31,07,30,13.10
2012,08,31,07,31,13.10
2012,08,31,07,32,13.10
2012,08,31,07,33,13.10
2012,08,31,07,34,13.10
2012,08,31,07,35,13.10
2012,08,31,07,36,13.20
2012,08,31,07,37,13.20
2012,08,31,07,38,13.20
2012,08,31,07,39,13.20
2012,08,31,07,40,13.20
2012,08,31,07,41,13.20
2012,08,31,07,42,13.20
2012,08,31,07,43,13.20
2012,08,31,07,44,13.20
2012,08,31,07,45,13.30
2012,08,31,07,46,13.30
2012,08,31,07,47,13.30
2012,08,31,07,48,13.40
2012,08,31,07,49,13.40
2012,08,31,07,50,13.40
2012,08,31,07,51,13.50
2012,08,31,07,52,13.60
2012,08,31,07,53,13.60
2012,08,31,07,54,13.70
2012,08,31,07,55,13.70
2012,08,31,07,56,13.70
2012,08,31,07,57,13.80
2012,08,31,07,58,13.80
2012,08,31,07,59,13.80
2012,08,31,08,00,13.80
2012,08,31,08,01,13.90
2012,08,31,08,02,13.90
2012,08,31,08,03,13.90
2012,08,31,08,04,13.90
2012,08,31,08,05,13.90
2012,08,31,08,06,13.90
2012,08,31,08,07,13.90
2012,08,31,08,08,13.90
2012,08,31,08,09,13.90
2012,08,31,08,10,13.90
2012,08,31,08,11,13.90
2012,08,31,08,12,13.90
2012,08,31,08,13,13.90
2012,08,31,08,14,13.90
2012,08,31,08,15,13.90
2012,08,31,08,16,13.90
2012,08,31,08,17,14.00
2012,08,31,08,18,14.00
2012,08,31,08,19,14.00
2012,08,31,08,20,14.00
2012,08,31,08,21,14.10
2012,08,31,08,22,14.10
2012,08,31,08,23,14.10
2012,08,31,08,24,14.10
2012,08,31,08,25,14.10
2012,08,31,08,26,14.20
2012,08,31,08,27,14.20
2012,08,31,08,28,14.20
2012,08,31,08,29,14.30
2012,08,31,08,30,14.30
2012,08,31,08,31,14.40
2012,08,31,08,32,14.40
2012,08,31,08,33,14.50
2012,08,31,08,34,14.50
2012,08,31,08,35,14.60
2012,08,31,08,36,14.60
2012,08,31,08,37,14.60
2012,08,31,08,38,14.60
2012,08,31,08,39,14.60
2012,08,31,08,40,14.60
2012,08,31,08,41,14.60
2012,08,31,08,42,14.50
2012,08,31,08,43,14.40
2012,08,31,08,44,14.40
2012,08,31,08,45,14.30
2012,08,31,08,46,14.30
2012,08,31,08,47,14.30
2012,08,31,08,48,14.30
2012,08,31,08,49,14.20
2012,08,31,08,50,14.20
2012,08,31,08,51,14.20
2012,08,31,08,52,14.10
2012,08,31,08,53,14.10
2012,08,31,08,54,14.10
2012,08,31,08,55,14.10
2012,08,31,08,56,14.10
2012,08,31,08,57,14.10
2012,08,31,08,58,14.10
2012,08,31,08,59,14.00
2012,08,31,09,00,14.00
2012,08,31,09,01,14.00
2012,08,31,09,02,14.00
2012,08,31,09,03,14.00
2012,08,31,09,04,14.10
2012,08,31,09,05,14.10
2012,08,31,09,06,14.20
2012,08,31,09,07,14.20
2012,08,31,09,08,14.20
2012,08,31,09,09,14.30
2012,08,31,09,10,14.40
2012,08,31,09,11,14.40
2012,08,31,09,12,14.40
2012,08,31,09,13,14.50
2012,08,31,09,14,14.50
2012,08,31,09,15,14.40
2012,08,31,09,16,14.40
2012,08,31,09,17,14.40
2012,08,31,09,18,14.40
2012,08,31,09,19,14.40
2012,08,31,09,20,14.40
2012,08,31,09,21,14.50
2012,08,31,09,22,14.50
2012,08,31,09,23,14.50
2012,08,31,09,24,14.60
2012,08,31,09,25,14.60
2012,08,31,09,26,14.60
2012,08,31,09,27,14.60
2012,08,31,09,28,14.70
2012,08,31,09,29,14.70
2012,08,31,09,30,14.70
2012,08,31,09,31,14.70
2012,08,31,09,32,14.70
2012,08,31,09,33,14.70
2012,08,31,09,34,14.80
2012,08,31,09,35,14.80
2012,08,31,09,36,14.80
2012,08,31,09,37,14.80
2012,08,31,09,38,14.90
2012,08,31,09,39,14.90
2012,08,31,09,40,14.90
2012,08,31,09,41,14.80
2012,08,31,09,42,14.80
2012,08,31,09,43,14.80
2012,08,31,09,44,14.90
2012,08,31,09,45,15.00
2012,08,31,09,46,15.00
2012,08,31,09,47,15.00
2012,08,31,09,48,15.00
2012,08,31,09,49,15.00
2012,08,31,09,50,15.00
2012,08,31,09,51,15.00
2012,08,31,09,52,15.00
2012,08,31,09,53,15.00
2012,08,31,09,54,15.00
2012,08,31,09,55,14.90
2012,08,31,09,56,14.80
2012,08,31,09,57,14.80
2012,08,31,09,58,14.70
2012,08,31,09,59,14.70
2012,08,31,10,00,14.70
2012,08,31,10,01,14.70
2012,08,31,10,02,14.80
2012,08,31,10,03,14.80
2012,08,31,10,04,14.80
2012,08,31,10,05,14.70
2012,08,31,10,06,14.70
2012,08,31,10,07,14.70
2012,08,31,10,08,14.80
2012,08,31,10,09,14.80
2012,08,31,10,10,14.90
2012,08,31,10,11,15.00
2012,08,31,10,12,15.00
2012,08,31,10,13,15.00
2012,08,31,10,14,15.00
2012,08,31,10,15,15.10
2012,08,31,10,16,15.20
2012,08,31,10,17,15.30
2012,08,31,10,18,15.30
2012,08,31,10,19,15.30
2012,08,31,10,20,15.30
2012,08,31,10,21,15.30
2012,08,31,10,22,15.30
2012,08,31,10,23,15.40
2012,08,31,10,24,15.40
2012,08,31,10,25,15.30
2012,08,31,10,26,15.30
2012,08,31,10,27,15.30
2012,08,31,10,28,15.30
2012,08,31,10,29,15.40
2012,08,31,10,30,15.40
2012,08,31,10,31,15.40
2012,08,31,10,32,15.50
2012,08,31,10,33,15.50
2012,08,31,10,34,15.50
2012,08,31,10,35,15.40
2012,08,31,10,36,15.30
2012,08,31,10,37,15.30
2012,08,31,10,38,15.30
2012,08,31,10,39,15.30
2012,08,31,10,40,15.30
2012,08,31,10,41,15.30
2012,08,31,10,42,15.30
2012,08,31,10,43,15.30
2012,08,31,10,44,15.40
2012,08,31,10,45,15.40
2012,08,31,10,46,15.40
2012,08,31,10,47,15.50
2012,08,31,10,48,15.50
2012,08,31,10,49,15.50
2012,08,31,10,50,15.60
2012,08,31,10,51,15.60
2012,08,31,10,52,15.60
2012,08,31,10,53,15.60
2012,08,31,10,54,15.60
2012,08,31,10,55,15.60
2012,08,31,10,56,15.60
2012,08,31,10,57,15.60
2012,08,31,10,58,15.60
2012,08,31,10,59,15.60
2012,08,31,11,00,15.60
2012,08,31,11,01,15.60
2012,08,31,11,02,15.60
2012,08,31,11,03,15.60
2012,08,31,11,04,15.70
2012,08,31,11,05,15.70
2012,08,31,11,06,15.80
2012,08,31,11,07,15.80
2012,08,31,11,08,15.90
2012,08,31,11,09,16.00
2012,08,31,11,10,16.10
2012,08,31,11,11,16.10
2012,08,31,11,12,16.10
2012,08,31,11,13,16.10
2012,08,31,11,14,16.20
2012,08,31,11,15,16.10
2012,08,31,11,16,16.10
2012,08,31,11,17,16.10
2012,08,31,11,18,16.10
2012,08,31,11,19,16.10
2012,08,31,11,20,16.20
2012,08,31,11,21,16.20
2012,08,31,11,22,16.20
2012,08,31,11,23,16.30
2012,08,31,11,24,16.30
2012,08,31,11,25,16.30
2012,08,31,11,26,16.20
2012,08,31,11,27,16.20
2012,08,31,11,28,16.10
2012,08,31,11,29,16.10
2012,08,31,11,30,16.10
2012,08,31,11,31,16.10
2012,08,31,11,32,16.10
2012,08,31,11,33,16.00
2012,08,31,11,34,16.00
2012,08,31,11,35,15.90
2012,08,31,11,36,15.90
2012,08,31,11,37,15.80
2012,08,31,11,38,15.80
2012,08,31,11,39,15.80
2012,08,31,11,40,15.80
2012,08,31,11,41,15.90
2012,08,31,11,42,15.90
2012,08,31,11,43,16.00
2012,08,31,11,44,16.10
2012,08,31,11,45,16.10
2012,08,31,11,46,16.10
2012,08,31,11,47,16.20
2012,08,31,11,48,16.20
2012,08,31,11,49,16.20
2012,08,31,11,50,16.30
2012,08,31,11,51,16.30
2012,08,31,11,52,16.40
2012,08,31,11,53,16.40
2012,08,31,11,54,16.30
2012,08,31,11,55,16.30
2012,08,31,11,56,16.30
2012,08,31,11,57,16.40
2012,08,31,11,58,16.40
2012,08,31,11,59,16.40
2012,08,31,12,00,16.40
2012,08,31,12,01,16.40
2012,08,31,12,02,16.40
2012,08,31,12,03,16.40
2012,08,31,12,04,16.40
2012,08,31,12,05,16.50
2012,08,31,12,06,16.60
2012,08,31,12,07,16.60
2012,08,31,12,08,16.70
2012,08,31,12,09,16.70
2012,08,31,12,10,16.80
2012,08,31,12,11,16.90
2012,08,31,12,12,16.90
2012,08,31,12,13,17.00
2012,08,31,12,14,17.10
2012,08,31,12,15,17.10
2012,08,31,12,16,17.10
2012,08,31,12,17,17.10
2012,08,31,12,18,17.10
2012,08,31,12,19,17.10
2012,08,31,12,20,17.00
2012,08,31,12,21,17.00
2012,08,31,12,22,16.90
2012,08,31,12,23,16.90
2012,08,31,12,24,16.90
2012,08,31,12,25,16.80
2012,08,31,12,26,16.80
2012,08,31,12,27,16.80
2012,08,31,12,28,16.80
2012,08,31,12,29,16.80
2012,08,31,12,30,16.80
2012,08,31,12,31,16.70
2012,08,31,12,32,16.70
2012,08,31,12,33,16.70
2012,08,31,12,34,16.70
2012,08,31,12,35,16.70
2012,08,31,12,36,16.70
2012,08,31,12,37,16.70
2012,08,31,12,38,16.70
2012,08,31,12,39,16.60
2012,08,31,12,40,16.60
2012,08,31,12,41,16.60
2012,08,31,12,42,16.60
2012,08,31,12,43,16.50
2012,08,31,12,44,16.50
2012,08,31,12,45,16.50
2012,08,31,12,46,16.50
2012,08,31,12,47,16.60
2012,08,31,12,48,16.60
2012,08,31,12,49,16.60
2012,08,31,12,50,16.70
2012,08,31,12,51,16.70
2012,08,31,12,52,16.60
2012,08,31,12,53,16.60
2012,08,31,12,54,16.60
2012,08,31,12,55,16.60
2012,08,31,12,56,16.60
2012,08,31,12,57,16.60
2012,08,31,12,58,16.70
2012,08,31,12,59,16.70
2012,08,31,13,00,16.80
2012,08,31,13,01,16.80
2012,08,31,13,02,16.80
2012,08,31,13,03,16.80
2012,08,31,13,04,16.90
2012,08,31,13,05,16.90
2012,08,31,13,06,17.00
2012,08,31,13,07,17.10
2012,08,31,13,08,17.10
2012,08,31,13,09,17.10
2012,08,31,13,10,17.20
2012,08,31,13,11,17.30
2012,08,31,13,12,17.40
2012,08,31,13,13,17.40
2012,08,31,13,14,17.40
2012,08,31,13,15,17.50
2012,08,31,13,16,17.50
2012,08,31,13,17,17.50
2012,08,31,13,18,17.60
2012,08,31,13,19,17.60
2012,08,31,13,20,17.70
2012,08,31,13,21,17.80
2012,08,31,13,22,17.80
2012,08,31,13,23,17.90
2012,08,31,13,24,17.90
2012,08,31,13,25,18.00
2012,08,31,13,26,18.00
2012,08,31,13,27,18.00
2012,08,31,13,28,18.00
2012,08,31,13,29,18.00
2012,08,31,13,30,17.90
2012,08,31,13,31,17.90
2012,08,31,13,32,17.90
2012,08,31,13,33,17.80
2012,08,31,13,34,17.80
2012,08,31,13,35,17.70
2012,08,31,13,36,17.70
2012,08,31,13,37,17.60
2012,08,31,13,38,17.60
2012,08,31,13,39,17.60
2012,08,31,13,40,17.70
2012,08,31,13,41,17.70
2012,08,31,13,42,17.70
2012,08,31,13,43,17.70
2012,08,31,13,44,17.80
2012,08,31,13,45,17.80
2012,08,31,13,46,17.80
2012,08,31,13,47,17.80
2012,08,31,13,48,17.80
2012,08,31,13,49,17.90
2012,08,31,13,50,17.90
2012,08,31,13,51,18.00
2012,08,31,13,52,18.00
2012,08,31,13,53,18.00
2012,08,31,13,54,18.00
2012,08,31,13,55,18.00
2012,08,31,13,56,18.00
2012,08,31,13,57,18.00
2012,08,31,13,58,17.90
2012,08,31,13,59,17.90
2012,08,31,14,00,17.80
2012,08,31,14,01,17.80
2012,08,31,14,02,17.90
2012,08,31,14,03,17.90
2012,08,31,14,04,17.90
2012,08,31,14,05,17.90
2012,08,31,14,06,17.90
2012,08,31,14,07,17.90
2012,08,31,14,08,17.90
2012,08,31,14,09,17.90
2012,08,31,14,10,18.00
2012,08,31,14,11,18.00
2012,08,31,14,12,18.10
2012,08,31,14,13,18.10
2012,08,31,14,14,18.10
2012,08,31,14,15,18.20
2012,08,31,14,16,18.20
2012,08,31,14,17,18.30
2012,08,31,14,18,18.30
2012,08,31,14,19,18.40
2012,08,31,14,20,18.40
2012,08,31,14,21,18.50
2012,08,31,14,22,18.50
2012,08,31,14,23,18.60
2012,08,31,14,24,18.50
2012,08,31,14,25,18.50
2012,08,31,14,26,18.50
2012,08,31,14,27,18.60
2012,08,31,14,28,18.60
2012,08,31,14,29,18.60
2012,08,31,14,30,18.60
2012,08,31,14,31,18.60
2012,08,31,14,32,18.60
2012,08,31,14,33,18.60
2012,08,31,14,34,18.70
2012,08,31,14,35,18.70
2012,08,31,14,36,18.60
2012,08,31,14,37,18.60
2012,08,31,14,38,18.60
2012,08,31,14,39,18.50
2012,08,31,14,40,18.50
2012,08,31,14,41,18.50
2012,08,31,14,42,18.60
2012,08,31,14,43,18.60
2012,08,31,14,44,18.60
2012,08,31,14,45,18.70
2012,08,31,14,46,18.70
2012,08,31,14,47,18.70
2012,08,31,14,48,18.70
2012,08,31,14,49,18.70
2012,08,31,14,50,18.70
2012,08,31,14,51,18.70
2012,08,31,14,52,18.70
2012,08,31,14,53,18.70
2012,08,31,14,54,18.70
2012,08,31,14,55,18.70
2012,08,31,14,56,18.80
2012,08,31,14,57,18.90
2012,08,31,14,58,19.00
2012,08,31,14,59,19.00
2012,08,31,15,00,19.10
2012,08,31,15,01,19.20
2012,08,31,15,02,19.20
2012,08,31,15,03,19.30
2012,08,31,15,04,19.40
2012,08,31,15,05,19.50
2012,08,31,15,06,19.50
2012,08,31,15,07,19.50
2012,08,31,15,08,19.60
2012,08,31,15,09,19.60
2012,08,31,15,10,19.50
2012,08,31,15,11,19.40
2012,08,31,15,12,19.40
2012,08,31,15,13,19.30
2012,08,31,15,14,19.20
2012,08,31,15,15,19.20
2012,08,31,15,16,19.20
2012,08,31,15,17,19.10
2012,08,31,15,18,19.10
2012,08,31,15,19,19.10
2012,08,31,15,20,19.10
2012,08,31,15,21,19.10
2012,08,31,15,22,19.00
2012,08,31,15,23,19.00
2012,08,31,15,24,19.00
2012,08,31,15,25,19.00
2012,08,31,15,26,18.90
2012,08,31,15,27,18.90
2012,08,31,15,28,19.00
2012,08,31,15,29,19.00
2012,08,31,15,30,19.00
2012,08,31,15,31,19.00
2012,08,31,15,32,19.00
2012,08,31,15,33,19.00
2012,08,31,15,34,19.00
2012,08,31,15,35,19.00
2012,08,31,15,36,19.00
2012,08,31,15,37,19.10
2012,08,31,15,38,19.10
2012,08,31,15,39,19.10
2012,08,31,15,40,19.10
2012,08,31,15,41,19.10
2012,08,31,15,42,19.10
2012,08,31,15,43,19.10
2012,08,31,15,44,19.10
2012,08,31,15,45,19.10
2012,08,31,15,46,19.10
2012,08,31,15,47,19.20
2012,08,31,15,48,19.20
2012,08,31,15,49,19.20
2012,08,31,15,50,19.20
2012,08,31,15,51,19.30
2012,08,31,15,52,19.30
2012,08,31,15,53,19.40
2012,08,31,15,54,19.40
2012,08,31,15,55,19.40
2012,08,31,15,56,19.40
2012,08,31,15,57,19.40
2012,08,31,15,58,19.40
2012,08,31,15,59,19.40
2012,08,31,16,00,19.40
2012,08,31,16,01,19.30
2012,08,31,16,02,19.30
2012,08,31,16,03,19.30
2012,08,31,16,04,19.20
2012,08,31,16,05,19.20
2012,08,31,16,06,19.20
2012,08,31,16,07,19.20
2012,08,31,16,08,19.20
2012,08,31,16,09,19.10
2012,08,31,16,10,19.10
2012,08,31,16,11,19.00
2012,08,31,16,12,18.90
2012,08,31,16,13,18.90
2012,08,31,16,14,18.90
2012,08,31,16,15,18.80
2012,08,31,16,16,18.80
2012,08,31,16,17,18.80
2012,08,31,16,18,18.80
2012,08,31,16,19,18.80
2012,08,31,16,20,18.80
2012,08,31,16,21,18.80
2012,08,31,16,22,18.80
2012,08,31,16,23,18.70
2012,08,31,16,24,18.70
2012,08,31,16,25,18.70
2012,08,31,16,26,18.70
2012,08,31,16,27,18.70
2012,08,31,16,28,18.70
2012,08,31,16,29,18.70
2012,08,31,16,30,18.70
2012,08,31,16,31,18.70
2012,08,31,16,32,18.70
2012,08,31,16,33,18.80
2012,08,31,16,34,18.90
2012,08,31,16,35,19.00
2012,08,31,16,36,19.10
2012,08,31,16,37,19.20
2012,08,31,16,38,19.30
2012,08,31,16,39,19.30
2012,08,31,16,40,19.40
2012,08,31,16,41,19.40
2012,08,31,16,42,19.50
2012,08,31,16,43,19.50
2012,08,31,16,44,19.60
2012,08,31,16,45,19.60
2012,08,31,16,46,19.60
2012,08,31,16,47,19.60
2012,08,31,16,48,19.60
2012,08,31,16,49,19.60
2012,08,31,16,50,19.60
2012,08,31,16,51,19.60
2012,08,31,16,52,19.60
2012,08,31,16,53,19.60
2012,08,31,16,54,19.60
2012,08,31,16,55,19.60
2012,08,31,16,56,19.60
2012,08,31,16,57,19.60
2012,08,31,16,58,19.60
2012,08,31,16,59,19.60
2012,08,31,17,00,19.60
2012,08,31,17,01,19.60
2012,08,31,17,02,19.60
2012,08,31,17,03,19.60
2012,08,31,17,04,19.60
2012,08,31,17,05,19.70
2012,08,31,17,06,19.70
2012,08,31,17,07,19.70
2012,08,31,17,08,19.70
2012,08,31,17,09,19.70
2012,08,31,17,10,19.70
2012,08,31,17,11,19.70
2012,08,31,17,12,19.70
2012,08,31,17,13,19.70
2012,08,31,17,14,19.80
2012,08,31,17,15,19.80
2012,08,31,17,16,19.80
2012,08,31,17,17,19.80
2012,08,31,17,18,19.80
2012,08,31,17,19,19.90